Ypsilanti, MI

3:21 AM EDT on July 27, 2016 (GMT -0400)
Willow Run

Weather History for KYIP - December, 2013

Change the Weather History Date:

Tuesday, December 17, 2013

  Actual Average Record
Temperature  
Mean Temperature 21 °F -  
Max Temperature 27 °F 34 °F 60 °F (1984)
Min Temperature 15 °F 21 °F 6 °F (1985)
Degree Days  
Heating Degree Days 44    
Moisture  
Dew Point 17 °F    
Average Humidity 78    
Maximum Humidity 86    
Minimum Humidity 74    
Precipitation  
Precipitation 0.00 in - - ()
Sea Level Pressure  
Sea Level Pressure 29.95 in    
Wind  
Wind Speed 7 mph (SW)    
Max Wind Speed 20 mph    
Max Gust Speed 28 mph    
Visibility 5 miles    
Events Snow    
Averages and records for this station are not official NWS values.
T = Trace of Precipitation, MM = Missing Value Source: NWS Daily Summary

Daily Weather History Graph

Daily Weather History Graph

Search for Another Location

Airport or City:

Trip Planner

Search our weather history database for the weather conditions in past years. The results will help you decide how hot, cold, wet, or windy it might be!

Date:

Astronomy

Dec. 17, 2013 Rise Set
Actual Time 7:57 AM EST 5:03 PM EST
Civil Twilight 7:25 AM EST 5:35 PM EST
Nautical Twilight 6:50 AM EST 6:10 PM EST
Astronomical Twilight 6:15 AM EST 6:44 PM EST
Moon 5:43 PM EST (12/17) 7:51 AM EST (12/17)
Length of Visible Light 10h 09m
Length of Day
9h 05m
Full, 100% of the Moon is Illuminated
Dec 17
Full
Dec 25
Last Quarter
Jan 1
New
Jan 7
First Quarter
Jan 15
Full

Hourly Weather History & Observations

Time (EST) Temp. Windchill Dew Point Humidity Pressure Visibility Wind Dir Wind Speed Gust Speed Precip Events Conditions
12:00 AM 19.4 °F - 14.0 °F 80% 29.98 in 2.0 mi Calm Calm - 0.00 in Snow Light Snow
12:13 AM 19.4 °F - 14.0 °F 80% 29.98 in 1.8 mi Calm Calm - 0.00 in Snow Light Snow
12:53 AM 19.0 °F 12.3 °F 14.0 °F 81% 30.01 in 4.0 mi NW 4.6 mph - 0.00 in Snow Light Snow
1:53 AM 19.9 °F 14.9 °F 14.0 °F 78% 29.99 in 8.0 mi NNW 3.5 mph - 0.00 in   Overcast
2:28 AM 19.4 °F - 12.2 °F 74% 29.95 in 8.0 mi Calm Calm - N/A   Overcast
2:53 AM 16.0 °F - 12.0 °F 84% 29.98 in 6.0 mi Calm Calm - N/A   Overcast
3:53 AM 15.1 °F 9.4 °F 10.0 °F 80% 29.98 in 6.0 mi WNW 3.5 mph - N/A   Haze
4:51 AM 17.6 °F 9.3 °F 12.2 °F 79% 29.95 in 7.0 mi WSW 5.8 mph - N/A   Mostly Cloudy
4:53 AM 17.1 °F 7.6 °F 12.0 °F 81% 29.99 in 7.0 mi WSW 6.9 mph - N/A   Mostly Cloudy
5:22 AM 17.6 °F 8.2 °F 12.2 °F 79% 29.94 in 9.0 mi SW 6.9 mph - N/A   Overcast
5:53 AM 19.0 °F 10.0 °F 12.9 °F 77% 29.98 in 9.0 mi SW 6.9 mph - N/A   Overcast
6:42 AM 19.4 °F 9.5 °F 14.0 °F 80% 29.97 in 7.0 mi WSW 8.1 mph - N/A   Overcast
6:53 AM 19.9 °F 11.1 °F 14.0 °F 78% 30.01 in 7.0 mi WSW 6.9 mph - N/A   Overcast
7:53 AM 21.0 °F 11.4 °F 15.1 °F 78% 30.01 in 6.0 mi SSW 8.1 mph - N/A   Haze
8:27 AM 21.2 °F 11.7 °F 15.8 °F 80% 29.98 in 4.0 mi SSW 8.1 mph - N/A   Haze
8:53 AM 21.9 °F 11.7 °F 17.1 °F 82% 30.01 in 4.0 mi SSW 9.2 mph - N/A   Haze
9:53 AM 25.0 °F 13.6 °F 18.0 °F 75% 30.00 in 4.0 mi SW 12.7 mph - N/A   Haze
10:53 AM 26.1 °F 14.0 °F 19.0 °F 75% 29.98 in 5.0 mi SSW 15.0 mph - N/A   Haze
11:04 AM 26.6 °F 15.2 °F 19.4 °F 74% 29.95 in 6.0 mi SSW 13.8 mph - N/A   Haze
11:53 AM 26.1 °F 13.1 °F 19.0 °F 75% 29.94 in 6.0 mi South 17.3 mph - N/A   Haze
12:53 PM 25.0 °F 13.6 °F 18.0 °F 75% 29.92 in 5.0 mi SW 12.7 mph - N/A   Haze
1:03 PM 24.8 °F 11.1 °F 17.6 °F 74% 29.89 in 5.0 mi SW 18.4 mph 23.0 mph N/A   Haze
1:31 PM 24.8 °F 10.7 °F 17.6 °F 74% 29.89 in 4.0 mi SSW 19.6 mph 27.6 mph N/A   Haze
1:50 PM 24.8 °F 11.9 °F 17.6 °F 74% 29.89 in 1.8 mi SW 16.1 mph 23.0 mph 0.00 in Snow Light Snow
1:53 PM 25.0 °F 11.7 °F 18.0 °F 75% 29.91 in 1.2 mi SW 17.3 mph - 0.00 in Snow Light Snow
2:02 PM 24.8 °F 11.9 °F 19.4 °F 80% 29.88 in 0.5 mi SW 16.1 mph - 0.00 in Snow Snow
2:27 PM 24.8 °F 11.9 °F 19.4 °F 80% 29.88 in 1.5 mi SW 16.1 mph - 0.00 in Snow Light Snow
2:53 PM 26.1 °F 14.0 °F 19.0 °F 75% 29.91 in 2.0 mi SW 15.0 mph - 0.00 in Snow Light Snow
3:00 PM 26.6 °F 14.7 °F 19.4 °F 74% 29.88 in 2.5 mi SW 15.0 mph - 0.00 in Snow Light Snow
3:11 PM 26.6 °F 15.2 °F 19.4 °F 74% 29.88 in 3.0 mi SW 13.8 mph - 0.00 in   Haze
3:46 PM 26.6 °F 15.7 °F 19.4 °F 74% 29.89 in 4.0 mi SW 12.7 mph - 0.00 in   Haze
3:53 PM 26.1 °F 15.0 °F 19.0 °F 75% 29.92 in 4.0 mi SSW 12.7 mph - 0.00 in   Haze
4:00 PM 26.6 °F 16.2 °F 19.4 °F 74% 29.90 in 4.0 mi SW 11.5 mph - N/A   Haze
4:53 PM 26.1 °F 14.0 °F 19.0 °F 75% 29.92 in 4.0 mi SSW 15.0 mph - N/A   Haze
5:07 PM 26.6 °F 15.7 °F 19.4 °F 74% 29.90 in 4.0 mi SW 12.7 mph - N/A   Haze
5:53 PM 27.0 °F 15.6 °F 19.9 °F 75% 29.93 in 6.0 mi SW 13.8 mph - N/A   Haze
6:26 PM 26.6 °F 16.2 °F 19.4 °F 74% 29.91 in 4.0 mi SW 11.5 mph - 0.00 in Snow Light Snow
6:50 PM 26.6 °F 16.8 °F 19.4 °F 74% 29.92 in 4.0 mi SW 10.4 mph - 0.00 in   Haze
6:53 PM 27.0 °F 18.0 °F 19.9 °F 75% 29.95 in 5.0 mi SW 9.2 mph - 0.00 in   Haze
7:24 PM 26.6 °F 16.2 °F 19.4 °F 74% 29.93 in 5.0 mi SW 11.5 mph - N/A   Haze
7:53 PM 27.0 °F 17.3 °F 19.9 °F 75% 29.96 in 6.0 mi SW 10.4 mph - N/A   Haze
8:53 PM 25.0 °F 16.3 °F 19.0 °F 78% 29.98 in 6.0 mi SW 8.1 mph - N/A   Haze
9:53 PM 19.9 °F 11.1 °F 16.0 °F 85% 29.99 in 4.0 mi SW 6.9 mph - N/A   Clear
10:53 PM 18.0 °F 8.7 °F 14.0 °F 84% 30.01 in 3.0 mi SSW 6.9 mph - N/A   Clear
11:36 PM 19.4 °F 11.5 °F 15.8 °F 86% 30.00 in 2.5 mi SW 5.8 mph - N/A   Mostly Cloudy
11:45 PM 19.4 °F 12.8 °F 15.8 °F 86% 29.99 in 3.0 mi SW 4.6 mph - N/A   Overcast
11:53 PM 19.9 °F 14.9 °F 16.0 °F 85% 30.02 in 3.0 mi SSW 3.5 mph - N/A   Overcast